This demonstration page uses our WeatherBlox Daily Observations layout. Learn more.

Left ArrowRight Arrow

Hourly Observations for September 21, 2021

Temp ( °F °C ) Dew Point ( °F °C ) Humidity (%) Winds ( mph kmh ) Pressure ( in mb ) Visibility ( mi km ) Precip ( " mm )
12:52 am 00:52 Clear 55 12.8 51 10.6 87 87 NNW 6 9 30.09 1019 10 16 0.00 0.00
1:52 am 01:52 Clear 56 13.3 51 10.6 84 84 NNW 6 9 30.12 1020 10 16 0.00 0.00
2:52 am 02:52 Partly Cloudy 54 12.2 51 10.6 90 90 N 7 11 30.14 1021 10 16 0.00 0.00
3:52 am 03:52 Mostly Cloudy 53 11.7 50 10 89 89 N 6 9 30.14 1021 10 16 0.00 0.00
4:52 am 04:52 Mostly Cloudy 53 11.7 50 10 89 89 N 6 9 30.16 1021 10 16 0.00 0.00
5:52 am 05:52 Mostly Cloudy 52 11.1 49 9.4 89 89 N 3 6 30.20 1023 10 16 0.00 0.00
6:52 am 06:52 Mostly Cloudy 50 10 48 8.9 93 93 N 6 9 30.24 1024 10 16 0.00 0.00
7:52 am 07:52 Mostly Cloudy 51 10.6 49 9.4 92 92 N 3 6 30.27 1025 10 16 0.00 0.00
8:52 am 08:52 Partly Cloudy 57 13.9 50 10 78 78 Calm 30.27 1025 10 16 0.00 0.00
9:52 am 09:52 Partly Cloudy 62 16.7 50 10 65 65 N 6 9 30.29 1026 10 16 0.00 0.00
10:52 am 10:52 Partly Cloudy 66 18.9 49 9.4 54 54 NW 6 9 30.31 1026 10 16 0.00 0.00
11:52 am 11:52 Sunny 70 21.1 47 8.3 44 44 NNW 13 20 30.30 1026 10 16 0.00 0.00
12:52 pm 12:52 Partly Cloudy 72 22.2 45 7.2 38 38 NW 17 28 30.30 1026 10 16 0.00 0.00
1:52 pm 13:52 Partly Cloudy 69 20.6 38 3.3 32 32 NNW 20 31 30.29 1026 10 16 0.00 0.00
2:52 pm 14:52 Partly Cloudy 73 22.8 41 5 32 32 NW 20 31 30.26 1025 10 16 0.00 0.00
3:52 pm 15:52 Partly Cloudy 73 22.8 39 3.9 29 29 NW 24 39 30.26 1025 10 16 0.00 0.00
4:52 pm 16:52 Mostly Sunny 73 22.8 38 3.3 28 28 NNW 21 33 30.27 1025 10 16 0.00 0.00
5:52 pm 17:52 Mostly Sunny 71 21.7 38 3.3 30 30 NNW 16 26 30.28 1025 10 16 0.00 0.00
6:52 pm 18:52 Mostly Sunny 68 20 39 3.9 35 35 NNW 12 19 30.29 1026 10 16 0.00 0.00
7:52 pm 19:52 Clear 61 16.1 42 5.6 50 50 N 6 9 30.31 1026 10 16 0.00 0.00
8:52 pm 20:52 Clear 58 14.4 44 6.7 60 60 N 6 9 30.32 1027 10 16 0.00 0.00
9:52 pm 21:52 Clear 55 12.8 45 7.2 69 69 N 5 7 30.35 1028 10 16 0.00 0.00
10:52 pm 22:52 Clear 54 12.2 45 7.2 72 72 NNW 3 6 30.35 1028 10 16 0.00 0.00
11:52 pm 23:52 Clear 52 11.1 45 7.2 77 77 N 3 6 30.35 1028 10 16 0.00 0.00

Powered by AerisWeather